Regional Weather Roundup
Issued by NWS

Home | Current Version | Previous Version | Graphics & Text | Print | Product List | Glossary On
Versions: 1 2 3 4 5 6 7 8 9 10 11 12 13 14 15 16 17 18 19 20 21 22 23 24 25 26 27 28 29 30 31 32 33 34 35 36 37 38 39 40 41 42 43 44 45 46 47 48 49 50
000
ASUS43 KOAX 201910
RWRNE

WEATHER ROUNDUP FOR NEBRASKA
NATIONAL WEATHER SERVICE OMAHA NE
200 PM CDT WED AUG 20 2014

NOTES: SATELLITE DATA IS BEING USED TO AUGMENT CLOUD COVER ABOVE
       12000 FEET.
       "FAIR" INDICATES FEW OR NO CLOUDS BELOW 12,000 FEET WITH NO
       SIGNIFICANT WEATHER AND/OR OBSTRUCTIONS TO VISIBILITY.

  * THESE STATIONS DO NOT REPORT WEATHER SUCH AS RAIN...SNOW OR FOG.

NEZ001>004-019>022-054>056-202000-
NEBRASKA PANHANDLE

CITY           SKY/WX    TMP DP  RH WIND       PRES   REMARKS
SCOTTSBLUFF    SUNNY     90  54  29 NW17G25   29.83F
ALLIANCE       SUNNY     91  51  25 NW16G24   29.82F
CHADRON        SUNNY     91  53  27 SW8       29.75F
KIMBALL        PTSUNNY   85  46  25 W13       29.89S
SIDNEY         MOSUNNY   89  50  26 NE3       29.87F
$$

NEZ057>060-069>072-079>082-202000-
SOUTHWEST NEBRASKA

CITY           SKY/WX    TMP DP  RH WIND       PRES   REMARKS
NORTH PLATTE   PTSUNNY   82  66  58 CALM      29.79S
IMPERIAL       MOSUNNY   86  60  41 N12       29.82S
LEXINGTON      MOSUNNY   88  73  60 SE12      29.76F HX  95
MCCOOK         MOSUNNY   95  62  33 S8        29.75F HX  96
OGALLALA       MOSUNNY   88  55  32 N9        29.80F
$$

NEZ005>010-023>029-035>040-094-202000-
NORTH CENTRAL NEBRASKA

CITY           SKY/WX    TMP DP  RH WIND       PRES   REMARKS
VALENTINE      CLOUDY    84  63  49 S8        29.75F
AINSWORTH      CLOUDY    83  66  56 SE7       29.76S
BROKEN BOW     CLOUDY    83  69  62 SE15G21   29.76F
O`NEILL        CLOUDY    79  70  74 SE13G20   29.76F
ORD            PTSUNNY   82  70  66 S10       29.76S
THEDFORD       CLOUDY    84  66  54 SE3       29.79S
$$

NEZ041-046>049-061>064-073>077-083>087-202000-
SOUTH CENTRAL NEBRASKA

CITY           SKY/WX    TMP DP  RH WIND       PRES   REMARKS
GRAND ISLAND   MOSUNNY   87  73  62 SE18      29.77F HX  94
AURORA         MOSUNNY   88  72  59 S15G21    29.78F HX  95
HASTINGS       MOSUNNY   89  67  47 SE21G26   29.77F HX  92
HEBRON         SUNNY     89  68  50 S13G20    29.80F HX  93
HOLDREGE       MOSUNNY   91  66  44 S10G20    29.76F HX  93
KEARNEY *      PTSUNNY   90  73  58 SE15      29.78F HX  98
YORK           MOSUNNY   86 N/A N/A S15       29.79S
$$

NEZ011>018-030>034-042>045-202000-
NORTHEAST NEBRASKA

CITY           SKY/WX    TMP DP  RH WIND       PRES   REMARKS
NORFOLK        CLOUDY    78  68  71 SE16      29.78F
ALBION         PTSUNNY   80  69  69 SE9       29.78F
BLAIR          PTSUNNY   85  72  65 SE13G18   29.82F HX  90
COLUMBUS *     PTSUNNY   84  73  70 S10       29.79S HX  91
FREMONT        CLOUDY    85  71  62 SE16      29.79F HX  90
TEKAMAH        CLOUDY    81  71  71 SE13      29.80F
WAYNE          CLOUDY    74  71  88 SE10      29.80R
$$

NEZ050>053-065>068-078-088>093-202000-
SOUTHEAST NEBRASKA

CITY           SKY/WX    TMP DP  RH WIND       PRES   REMARKS
LINCOLN        SUNNY     93  68  43 S17G28    29.79F HX  97
OMAHA EPPLEY   PTSUNNY   86  70  58 SE15G28   29.82F HX  90
BEATRICE       SUNNY     92  70  47 S15G21    29.81F HX  97
FALLS CITY     MOSUNNY   93  73  52 SE13G21   29.83F HX 102
NEBRASKA CITY  MOSUNNY   86  74  66 SE12      29.84F HX  94
PLATTSMOUTH    MOSUNNY   87  72  59 SE10G20   29.84S HX  93
$$

NEZ044-045-051>053-067-202000-
OMAHA AREA

CITY           SKY/WX    TMP DP  RH WIND       PRES   REMARKS
OMAHA EPPLEY   PTSUNNY   86  70  58 SE15G28   29.82F HX  90
BLAIR          PTSUNNY   85  72  65 SE13G18   29.82F HX  90
FREMONT        CLOUDY    85  71  62 SE16      29.79F HX  90
MILLARD        PTSUNNY   88  74  63 SE16      29.81F HX  96
OFFUTT AFB     PTSUNNY   86  77  75 SE17G24   29.82F HX  97
PLATTSMOUTH    MOSUNNY   87  72  59 SE10G20   29.84S HX  93
WAHOO          FAIR      88  70  55 SE15G23   29.79F HX  93
$$


USA.gov is the U.S. government's official web portal to all federal, state and local government web resources and services.